This is the latest recevied weather packets stored in our database for station/object N5LSN. If no packets are shown the sender has not sent any weather packets the latest 10 day(s).
| Time | Temp. | Humidity | Pressure | Rain* | Wind** | Luminosity | Snow |
|---|---|---|---|---|---|---|---|
| 1777777844 | 11.11° C | 82% | 1020.1 hPa | 0 mm | - | 0 W/m² | - |
| 1777777540 | 11.67° C | 82% | 1019.8 hPa | 0 mm | - | 0 W/m² | - |
| 1777777237 | 11.67° C | 82% | 1020 hPa | 0 mm | - | 0 W/m² | - |
| 1777776934 | 11.67° C | 83% | 1020 hPa | 0 mm | - | 0 W/m² | - |
| 1777776632 | 11.11° C | 82% | 1019.7 hPa | 0 mm | - | 0 W/m² | - |
| 1777776327 | 11.67° C | 81% | 1019.7 hPa | 0 mm | - | 0 W/m² | - |
| 1777776025 | 11.67° C | 80% | 1019.7 hPa | 0 mm | - | 0 W/m² | - |
| 1777775721 | 11.67° C | 78% | 1019.6 hPa | 0 mm | - | 0 W/m² | - |
| 1777775419 | 12.22° C | 77% | 1019.6 hPa | 0 mm | - | 0 W/m² | - |
| 1777775115 | 12.22° C | 79% | 1019.3 hPa | 0 mm | - | 0 W/m² | - |
| 1777774810 | 12.22° C | 79% | 1019.3 hPa | 0 mm | - | 0 W/m² | - |
| 1777774507 | 12.22° C | 76% | 1019.2 hPa | 0 mm | - | 0 W/m² | - |
| 1777774204 | 12.78° C | 76% | 1019.2 hPa | 0 mm | - | 0 W/m² | - |
| 1777773901 | 12.78° C | 75% | 1019.1 hPa | 0 mm | - | 0 W/m² | - |
| 1777773597 | 13.33° C | 73% | 1018.9 hPa | 0 mm | - | 0 W/m² | - |
| 1777773294 | 13.33° C | 72% | 1019.2 hPa | 0 mm | - | 0 W/m² | - |
| 1777772991 | 13.89° C | 69% | 1019.1 hPa | 0 mm | - | 0 W/m² | - |
| 1777772687 | 14.44° C | 66% | 1019.1 hPa | 0 mm | - | 0 W/m² | - |
| 1777772385 | 14.44° C | 65% | 1018.8 hPa | 0 mm | - | 0 W/m² | - |
| 1777772082 | 15° C | 62% | 1019.1 hPa | 0 mm | - | 0 W/m² | - |
| 1777771780 | 15° C | 61% | 1019 hPa | 0 mm | - | 0 W/m² | - |
| 1777771478 | 15.56° C | 59% | 1018.8 hPa | 0 mm | - | 0 W/m² | - |
| 1777771173 | 16.11° C | 56% | 1018.9 hPa | 0 mm | - | 0 W/m² | - |
| 1777770870 | 16.67° C | 54% | 1018.8 hPa | 0 mm | - | 0 W/m² | - |
| 1777770567 | 17.22° C | 52% | 1018.7 hPa | 0 mm | - | 0 W/m² | - |
* Rain latest hour (hover to see other rain measurements)
** Current wind speed in m/s (hover to see current wind gust speed)